QPF
0.00 0.00 0.00 0.00 0.00 0.00 0.00 0.00 0.00 0.01 0.01 0.01 0.01 0.00 0.00 0.00 0.00 0.00 0.00 0.00 0.00 0.00 0.00 0.00 0.00 0.00 0.00 0.00 0.00 0.00 0.00 0.00 0.00 0.01 0.00 0.00 0.00 0.00 0.01 0.01 0.01 0.00 0.01
0.00 0.00 0.00 0.00 0.00 0.00 0.00 0.00 0.00 0.00 0.00 0.00 0.00 0.00 0.00 0.00 0.00 0.00 0.00 0.00 0.00 0.00 0.00 0.00 0.00 0.00 0.00 0.00 0.00 0.00 0.00 0.00 0.00 0.01 0.00 0.00 0.00 0.00 0.00 0.00 0.00 0.00 0.00
0.00 0.00 0.00 0.00 0.00 0.00 0.00 0.00 0.00 0.00 0.00 0.00 0.00 0.00 0.00 0.00 0.00 0.00 0.00 0.00 0.00 0.00 0.00 0.00 0.00 0.00 0.00 0.00 0.00 0.00 0.00 0.00 0.00 0.00 0.00 0.00 0.00 0.00 0.00 0.00 0.00 0.00 0.00
0.00 0.00 0.00 0.00 0.00 0.00 0.00 0.00 0.00 0.00 0.00 0.00 0.00 0.00 0.00 0.00 0.00 0.00 0.00 0.00 0.00 0.00 0.00 0.00 0.00 0.00 0.00 0.00 0.00 0.00 0.00 0.00 0.00 0.00 0.00 0.00 0.00 0.00 0.00 0.00 0.00 0.00 0.00
0.00 0.00 0.00 0.00 0.00 0.00 0.00 0.00 0.00 0.00 0.00 0.00 0.00 0.00 0.00 0.00 0.00 0.00 0.00 0.00 0.00 0.00 0.00 0.00 0.00 0.00 0.00 0.00 0.00 0.00 0.00 0.00 0.00 0.00 0.00 0.00 0.00 0.00 0.00 0.00 0.00 0.00 0.00
0.00 0.00 0.00 0.00 0.00 0.00 0.00 0.00 0.00 0.00 0.00 0.00 0.00 0.00 0.00 0.00 0.00 0.00 0.00 0.00 0.00 0.00 0.00 0.00 0.00 0.00 0.00 0.00 0.00 0.00 0.00 0.00 0.00 0.00 0.00 0.00 0.00 0.00 0.00 0.00 0.00 0.00 0.00
0.00 0.00 0.00 0.00 0.00 0.00 0.00 0.00 0.00 0.00 0.00 0.00 0.00 0.00 0.00 0.00 0.00 0.00 0.00 0.00 0.00 0.00 0.00 0.00 0.00 0.00 0.00 0.00 0.00 0.00 0.00 0.00 0.00 0.00 0.00 0.00 0.00 0.00 0.00 0.00 0.00 0.00 0.00
0.00 0.00 0.00 0.00 0.00 0.00 0.00 0.00 0.00 0.00 0.00 0.00 0.00 0.00 0.00 0.00 0.00 0.00 0.00 0.00 0.00 0.00 0.00 0.00 0.00 0.00 0.00 0.00 0.00 0.00 0.00 0.00 0.00 0.00 0.00 0.00 0.00 0.00 0.00 0.00 0.00 0.00 0.00
0.00 0.00 0.00 0.00 0.00 0.00 0.00 0.00 0.00 0.00 0.00 0.00 0.00 0.00 0.00 0.00 0.00 0.00 0.00 0.00 0.00 0.00 0.00 0.00 0.00 0.00 0.00 0.00 0.00 0.00 0.00 0.00 0.00 0.00 0.00 0.00 0.00 0.00 0.00 0.00 0.00 0.00 0.00
0.00 0.00 0.00 0.00 0.00 0.00 0.00 0.00 0.00 0.00 0.00 0.00 0.00 0.00 0.00 0.00 0.00 0.00 0.00 0.00 0.00 0.00 0.00 0.00 0.00 0.00 0.00 0.00 0.00 0.00 0.00 0.00 0.00 0.00 0.00 0.00 0.00 0.00 0.00 0.00 0.00 0.00 0.00
0.00 0.00 0.00 0.00 0.00 0.00 0.00 0.00 0.00 0.00 0.00 0.00 0.00 0.00 0.00 0.00 0.00 0.00 0.00 0.00 0.00 0.00 0.00 0.00 0.00 0.00 0.00 0.00 0.00 0.00 0.00 0.00 0.00 0.00 0.00 0.00 0.00 0.00 0.00 0.00 0.00 0.00 0.00
0.00 0.00 0.00 0.00 0.00 0.00 0.00 0.00 0.00 0.00 0.00 0.00 0.00 0.00 0.00 0.00 0.00 0.00 0.00 0.00 0.00 0.00 0.00 0.00 0.00 0.00 0.00 0.00 0.00 0.00 0.00 0.00 0.00 0.00 0.00 0.00 0.00 0.00 0.00 0.00 0.00 0.00 0.00
0.00 0.00 0.00 0.00 0.00 0.00 0.00 0.00 0.00 0.00 0.00 0.00 0.00 0.00 0.00 0.00 0.00 0.00 0.00 0.00 0.00 0.00 0.00 0.00 0.00 0.00 0.00 0.00 0.00 0.00 0.00 0.00 0.00 0.00 0.00 0.00 0.00 0.00 0.00 0.00 0.00 0.00 0.00
0.00 0.00 0.00 0.00 0.00 0.00 0.00 0.00 0.00 0.00 0.00 0.00 0.00 0.00 0.00 0.00 0.00 0.00 0.00 0.00 0.00 0.00 0.00 0.00 0.00 0.00 0.00 0.00 0.00 0.00 0.00 0.00 0.00 0.00 0.00 0.00 0.00 0.00 0.00 0.00 0.00 0.00 0.00
0.00 0.00 0.00 0.00 0.00 0.00 0.00 0.00 0.00 0.00 0.00 0.00 0.00 0.00 0.00 0.00 0.00 0.00 0.00 0.00 0.00 0.00 0.00 0.00 0.00 0.00 0.00 0.00 0.00 0.00 0.00 0.00 0.00 0.00 0.00 0.00 0.00 0.00 0.00 0.00 0.00 0.00 0.00
0.00 0.00 0.00 0.00 0.00 0.00 0.00 0.00 0.00 0.00 0.00 0.00 0.00 0.00 0.00 0.00 0.00 0.00 0.00 0.00 0.00 0.00 0.00 0.00 0.00 0.00 0.00 0.00 0.00 0.00 0.00 0.00 0.00 0.00 0.00 0.00 0.00 0.00 0.00 0.00 0.00 0.00 0.00
0.00 0.00 0.00 0.00 0.00 0.00 0.00 0.00 0.00 0.00 0.00 0.00 0.00 0.00 0.00 0.00 0.00 0.00 0.00 0.00 0.00 0.00 0.00 0.00 0.00 0.00 0.00 0.00 0.00 0.00 0.00 0.00 0.00 0.00 0.00 0.00 0.00 0.00 0.00 0.00 0.00 0.00 0.00
0.00 0.00 0.00 0.00 0.00 0.00 0.00 0.00 0.00 0.00 0.00 0.00 0.00 0.00 0.00 0.00 0.00 0.00 0.00 0.00 0.00 0.00 0.00 0.00 0.00 0.00 0.00 0.00 0.00 0.00 0.00 0.00 0.00 0.00 0.00 0.00 0.00 0.00 0.00 0.00 0.00 0.00 0.00
0.00 0.00 0.00 0.00 0.00 0.00 0.00 0.00 0.00 0.00 0.00 0.00 0.00 0.00 0.00 0.00 0.00 0.00 0.00 0.00 0.00 0.00 0.00 0.00 0.00 0.00 0.00 0.00 0.00 0.00 0.00 0.00 0.00 0.00 0.00 0.00 0.00 0.00 0.00 0.00 0.00 0.00 0.00
0.00 0.00 0.00 0.00 0.00 0.00 0.00 0.00 0.00 0.00 0.00 0.00 0.00 0.00 0.00 0.00 0.00 0.00 0.00 0.00 0.00 0.00 0.00 0.00 0.00 0.00 0.00 0.00 0.00 0.00 0.00 0.00 0.00 0.00 0.00 0.00 0.00 0.00 0.00 0.00 0.00 0.00 0.00
0.00 0.00 0.00 0.00 0.00 0.00 0.00 0.00 0.00 0.00 0.00 0.00 0.00 0.00 0.00 0.00 0.00 0.00 0.00 0.00 0.00 0.00 0.00 0.00 0.00 0.00 0.00 0.00 0.00 0.00 0.00 0.00 0.00 0.00 0.00 0.00 0.00 0.00 0.00 0.00 0.00 0.00 0.00
0.00 0.00 0.00 0.00 0.00 0.00 0.00 0.00 0.00 0.00 0.00 0.00 0.00 0.00 0.00 0.00 0.00 0.00 0.00 0.00 0.00 0.00 0.00 0.00 0.00 0.00 0.00 0.00 0.00 0.00 0.00 0.00 0.00 0.00 0.00 0.00 0.00 0.00 0.00 0.00 0.00 0.00 0.00
0.00 0.00 0.00 0.00 0.00 0.00 0.00 0.00 0.00 0.00 0.00 0.00 0.00 0.00 0.00 0.00 0.00 0.00 0.00 0.00 0.00 0.00 0.00 0.00 0.00 0.00 0.00 0.00 0.00 0.00 0.00 0.00 0.00 0.00 0.00 0.00 0.00 0.00 0.00 0.00 0.00 0.00 0.00
0.00 0.00 0.00 0.00 0.00 0.00 0.00 0.00 0.00 0.00 0.00 0.00 0.00 0.00 0.00 0.00 0.00 0.00 0.00 0.00 0.00 0.00 0.00 0.00 0.00 0.00 0.00 0.00 0.00 0.00 0.00 0.00 0.00 0.00 0.00 0.00 0.00 0.00 0.00 0.00 0.00 0.00 0.00
0.00 0.00 0.00 0.00 0.00 0.00 0.00 0.00 0.00 0.00 0.00 0.00 0.00 0.00 0.00 0.00 0.00 0.00 0.00 0.00 0.00 0.00 0.00 0.00 0.00 0.00 0.00 0.00 0.00 0.00 0.00 0.00 0.00 0.00 0.00 0.00 0.00 0.00 0.00 0.00 0.00 0.00 0.00
0.00 0.00 0.00 0.00 0.00 0.00 0.00 0.00 0.00 0.00 0.00 0.00 0.00 0.00 0.00 0.00 0.00 0.00 0.00 0.00 0.00 0.00 0.00 0.00 0.00 0.00 0.00 0.00 0.00 0.00 0.00 0.00 0.00 0.00 0.00 0.00 0.00 0.00 0.00 0.00 0.00 0.00 0.00
MSLP
1027.10 1026.65 1026.34 1026.32 1026.21 1025.96 1025.74 1025.60 1025.45 1025.35 1025.30 1025.21 1025.10 1025.00 1024.97 1024.84 1024.55 1024.48 1024.18 1024.02 1023.73 1023.44 1023.46 1023.16 1022.72 1022.37 1022.37 1021.97 1021.67 1021.36 1021.12 1021.06 1020.91 1020.81 1021.12 1021.17 1020.82 1020.11 1019.16 1018.87 1018.53 1018.42 1018.08
1027.21 1026.90 1026.61 1026.54 1026.38 1026.08 1026.02 1025.81 1025.85 1025.70 1025.63 1025.60 1025.47 1025.29 1025.27 1025.16 1024.97 1024.80 1024.54 1024.32 1024.03 1023.83 1023.66 1023.46 1023.22 1022.82 1022.52 1022.34 1022.11 1021.84 1021.48 1021.36 1021.08 1021.26 1021.65 1021.63 1021.26 1020.47 1019.79 1019.19 1018.99 1018.69 1018.52
1027.33 1027.23 1027.01 1026.74 1026.57 1026.29 1026.18 1026.11 1026.08 1026.16 1026.01 1025.88 1025.83 1025.66 1025.57 1025.46 1025.20 1025.13 1024.97 1024.72 1024.41 1024.20 1024.03 1023.64 1023.54 1023.24 1022.90 1022.69 1022.43 1022.11 1021.86 1021.55 1021.45 1021.76 1022.01 1022.02 1021.65 1020.80 1020.04 1019.42 1019.27 1019.18 1018.93
1027.52 1027.41 1027.15 1026.96 1026.77 1026.59 1026.46 1026.45 1026.47 1026.32 1026.27 1026.34 1026.09 1026.13 1025.97 1025.80 1025.50 1025.39 1025.27 1025.11 1024.84 1024.49 1024.17 1023.93 1023.79 1023.52 1023.09 1022.84 1022.64 1022.34 1022.13 1022.03 1021.97 1022.46 1022.46 1022.23 1021.88 1021.17 1020.27 1019.92 1019.77 1019.55 1019.36
1027.66 1027.45 1027.28 1027.16 1026.92 1026.82 1026.70 1026.73 1026.79 1026.78 1026.78 1026.74 1026.63 1026.53 1026.43 1026.15 1025.81 1025.61 1025.46 1025.29 1024.98 1024.72 1024.39 1023.97 1023.75 1023.54 1023.23 1022.96 1022.65 1022.49 1022.32 1022.11 1022.56 1023.01 1022.81 1022.42 1022.05 1021.35 1020.35 1020.05 1019.99 1019.87 1019.63
1027.75 1027.62 1027.42 1027.33 1027.33 1027.38 1027.30 1027.19 1027.24 1027.19 1027.11 1027.09 1026.83 1026.63 1026.44 1026.14 1025.98 1025.79 1025.64 1025.32 1024.98 1024.73 1024.49 1024.20 1023.87 1023.28 1023.08 1023.01 1022.85 1022.61 1022.35 1022.41 1023.10 1023.10 1022.97 1022.65 1022.12 1021.14 1020.43 1020.10 1020.16 1020.00 1019.84
1028.03 1027.91 1027.79 1027.68 1027.66 1027.66 1027.70 1027.65 1027.60 1027.53 1027.40 1027.28 1026.92 1026.68 1026.46 1026.39 1026.21 1026.05 1025.90 1025.45 1025.07 1024.85 1024.47 1024.27 1024.01 1023.75 1023.50 1023.40 1023.27 1023.12 1022.79 1022.66 1023.39 1023.47 1023.03 1022.78 1022.34 1021.13 1020.51 1020.29 1020.21 1020.09 1019.84
1028.16 1028.20 1028.05 1027.79 1027.86 1027.82 1027.82 1027.81 1027.78 1027.65 1027.50 1027.44 1027.30 1027.22 1027.11 1026.90 1026.68 1026.37 1026.13 1025.60 1025.43 1025.03 1024.90 1024.73 1024.55 1024.30 1024.09 1024.08 1023.76 1023.30 1023.07 1023.15 1023.76 1023.57 1023.27 1022.79 1022.13 1021.15 1020.55 1020.24 1020.11 1019.97 1019.79
1028.34 1028.43 1028.50 1028.48 1028.36 1028.24 1027.90 1027.86 1027.83 1027.77 1027.73 1027.79 1027.73 1027.65 1027.59 1027.37 1027.15 1026.82 1026.55 1026.06 1025.66 1025.61 1025.34 1025.27 1024.98 1024.67 1024.76 1024.94 1024.51 1024.06 1023.79 1023.98 1024.19 1023.83 1023.36 1022.98 1021.88 1021.27 1020.64 1020.24 1020.11 1019.86 1019.70
1028.69 1028.71 1028.77 1028.75 1028.65 1028.66 1028.61 1028.08 1028.01 1028.03 1028.07 1028.14 1028.10 1028.13 1028.04 1028.07 1027.66 1027.40 1027.08 1026.63 1026.44 1026.49 1026.09 1025.78 1025.49 1025.38 1025.38 1025.38 1024.97 1024.59 1024.42 1024.54 1024.37 1023.96 1023.53 1023.14 1021.84 1021.31 1020.77 1020.41 1020.12 1019.96 1019.76
1028.83 1028.85 1028.85 1028.79 1028.79 1028.82 1028.73 1028.60 1028.70 1028.45 1028.49 1028.67 1028.69 1028.53 1028.81 1028.64 1028.36 1027.99 1027.44 1027.24 1027.02 1026.95 1026.61 1026.38 1026.00 1025.80 1025.60 1025.62 1025.23 1024.86 1024.84 1024.84 1024.47 1024.11 1023.62 1022.58 1021.90 1021.31 1020.81 1020.41 1020.13 1019.91 1019.59
1028.98 1028.96 1028.95 1028.86 1028.95 1028.92 1028.81 1028.98 1029.00 1028.96 1029.07 1029.10 1028.98 1029.06 1029.12 1028.89 1028.53 1028.28 1027.99 1027.91 1027.60 1027.44 1027.16 1026.89 1026.59 1026.37 1026.18 1025.98 1025.74 1025.39 1025.12 1024.72 1024.40 1024.24 1023.89 1022.86 1022.15 1021.46 1020.78 1020.34 1020.14 1019.86 1019.50
1028.84 1028.87 1028.87 1028.93 1028.98 1029.10 1029.23 1029.29 1029.36 1029.43 1029.39 1029.33 1029.21 1029.15 1029.26 1029.03 1029.01 1028.89 1028.75 1028.72 1028.52 1027.99 1027.93 1027.60 1027.40 1027.03 1026.70 1026.17 1025.75 1025.49 1025.15 1024.84 1024.52 1024.11 1023.66 1022.93 1022.28 1021.62 1020.97 1020.46 1020.05 1019.77 1019.75
1028.87 1028.87 1028.89 1029.01 1029.16 1029.24 1029.49 1029.52 1029.44 1029.63 1029.55 1029.45 1029.34 1029.29 1029.50 1029.47 1029.28 1029.25 1029.15 1028.86 1028.85 1028.54 1028.10 1027.81 1027.62 1027.24 1026.82 1026.38 1025.97 1025.60 1025.10 1024.75 1024.44 1024.15 1023.85 1023.08 1022.36 1021.70 1021.17 1020.57 1020.28 1020.03 1019.77
1028.96 1028.86 1028.97 1029.06 1029.28 1029.29 1029.50 1029.54 1029.53 1029.59 1029.49 1029.54 1029.34 1029.32 1029.53 1029.46 1029.44 1029.35 1029.19 1028.98 1028.92 1028.64 1028.34 1028.07 1027.74 1027.36 1026.90 1026.48 1026.02 1025.71 1025.33 1024.90 1024.45 1024.06 1023.76 1023.17 1022.51 1021.92 1021.39 1020.89 1020.42 1020.18 1020.00
1028.53 1028.68 1028.90 1029.03 1029.13 1029.21 1029.36 1029.44 1029.63 1029.40 1029.49 1029.75 1029.42 1029.50 1029.47 1029.38 1029.39 1029.47 1029.13 1029.07 1028.97 1028.76 1028.45 1028.14 1027.92 1027.57 1027.07 1026.60 1026.12 1025.64 1025.33 1025.01 1024.61 1024.20 1023.74 1023.29 1022.68 1022.29 1021.82 1021.38 1020.97 1020.51 1019.97
1028.11 1028.36 1028.70 1028.82 1028.86 1029.03 1029.22 1029.35 1029.53 1029.40 1029.55 1029.62 1029.56 1029.39 1029.26 1029.39 1029.39 1029.26 1029.27 1029.16 1028.95 1028.68 1028.39 1028.06 1027.83 1027.54 1027.26 1026.73 1026.40 1025.82 1025.36 1025.11 1024.79 1024.32 1023.92 1023.61 1023.21 1022.63 1022.17 1021.89 1021.32 1020.69 1020.00
1027.89 1028.12 1028.28 1028.06 1028.60 1028.88 1029.10 1029.24 1029.29 1029.31 1029.48 1029.55 1029.57 1029.47 1029.22 1029.17 1029.25 1029.25 1029.16 1029.01 1028.80 1028.63 1028.38 1028.21 1028.02 1027.81 1027.42 1027.06 1026.56 1025.94 1025.64 1025.32 1024.95 1024.36 1024.04 1023.80 1023.52 1023.00 1022.59 1021.89 1021.28 1020.82 1020.29
1027.36 1027.76 1028.11 1028.16 1028.46 1028.61 1028.95 1029.07 1029.15 1029.18 1029.44 1029.49 1029.59 1029.35 1029.14 1029.16 1029.13 1029.21 1029.15 1029.09 1028.91 1028.77 1028.51 1028.30 1027.97 1027.84 1027.41 1026.96 1026.56 1025.91 1025.62 1025.50 1025.21 1024.68 1024.27 1023.83 1023.57 1023.21 1022.87 1022.26 1021.43 1020.92 1020.35
1027.00 1027.47 1027.73 1028.07 1028.26 1028.59 1028.93 1029.10 1029.22 1029.33 1029.28 1029.40 1029.42 1029.29 1029.04 1029.13 1029.01 1029.15 1029.03 1028.96 1028.92 1028.86 1028.68 1028.49 1028.40 1027.85 1027.55 1027.11 1026.63 1025.98 1025.49 1025.44 1025.28 1024.89 1024.51 1024.00 1023.55 1023.08 1022.70 1022.33 1021.87 1021.29 1020.38
1027.06 1027.39 1027.61 1027.97 1028.26 1028.71 1029.06 1029.33 1029.39 1029.32 1029.25 1029.28 1029.27 1028.96 1029.00 1029.01 1028.94 1028.93 1028.91 1028.88 1028.85 1028.79 1028.72 1028.51 1028.37 1028.13 1027.59 1027.09 1026.73 1025.97 1025.67 1025.49 1025.28 1024.76 1024.76 1024.37 1023.88 1023.20 1022.71 1022.30 1021.94 1021.38 1020.62
1026.59 1026.98 1027.33 1027.56 1027.92 1028.27 1028.45 1028.66 1028.78 1028.94 1028.96 1028.93 1028.84 1028.83 1028.72 1028.79 1028.74 1028.72 1028.78 1028.81 1028.70 1028.67 1028.57 1028.41 1028.42 1028.36 1028.08 1027.55 1027.64 1027.31 1026.85 1026.11 1025.43 1024.81 1024.60 1024.30 1024.03 1023.42 1022.80 1022.15 1021.68 1021.16 1020.53
1026.30 1026.63 1026.83 1026.99 1027.26 1027.55 1027.80 1028.19 1028.49 1028.71 1028.90 1028.94 1028.85 1028.76 1028.53 1028.49 1028.42 1028.48 1028.60 1028.66 1028.55 1028.59 1028.58 1028.48 1028.32 1028.33 1028.36 1027.83 1027.60 1027.78 1027.59 1027.29 1025.88 1024.89 1024.50 1024.14 1023.88 1023.30 1022.75 1022.12 1021.49 1020.88 1020.32
1025.21 1025.80 1026.09 1026.34 1026.63 1026.89 1027.24 1027.67 1027.96 1028.30 1028.64 1028.55 1028.47 1028.38 1028.30 1028.24 1028.18 1028.21 1028.26 1028.36 1028.29 1028.34 1028.35 1028.20 1027.80 1028.09 1028.23 1028.08 1027.64 1027.31 1027.25 1027.24 1026.99 1025.59 1024.53 1024.15 1023.68 1023.20 1022.63 1021.94 1021.45 1020.87 1020.19
1024.35 1024.86 1025.31 1025.73 1026.10 1026.27 1026.70 1026.96 1027.34 1027.83 1027.97 1028.11 1028.29 1028.29 1028.18 1028.07 1028.01 1027.93 1027.94 1028.04 1028.04 1028.06 1027.93 1027.84 1027.75 1027.75 1027.87 1027.89 1027.76 1027.39 1027.15 1026.97 1026.85 1026.90 1025.04 1023.85 1023.57 1023.09 1022.56 1021.98 1021.36 1020.85 1020.08
1023.73 1024.29 1024.84 1025.24 1025.48 1025.83 1026.18 1026.48 1026.72 1027.13 1027.50 1027.97 1028.06 1028.13 1027.98 1027.96 1027.84 1027.66 1027.57 1027.65 1027.67 1027.67 1027.58 1027.37 1027.33 1027.37 1027.38 1027.36 1027.26 1027.12 1027.04 1026.93 1026.60 1026.41 1025.69 1024.55 1023.71 1022.77 1022.18 1021.55 1021.14 1020.63 1019.97
Thickness
5636 5637 5636 5635 5634 5634 5633 5633 5632 5632 5632 5633 5633 5632 5632 5633 5636 5638 5641 5642 5644 5648 5651 5653 5657 5660 5662 5665 5669 5673 5678 5680 5682 5684 5682 5683 5687 5696 5706 5711 5716 5718 5723
5632 5631 5628 5627 5627 5627 5625 5625 5624 5623 5623 5622 5623 5623 5623 5623 5625 5628 5631 5632 5634 5637 5640 5644 5647 5650 5653 5656 5659 5662 5667 5672 5676 5674 5674 5676 5680 5687 5694 5701 5705 5710 5714
5627 5625 5624 5622 5621 5620 5619 5616 5614 5612 5611 5611 5612 5613 5613 5614 5616 5617 5619 5622 5624 5626 5629 5634 5636 5639 5643 5645 5649 5653 5658 5662 5668 5663 5666 5669 5672 5677 5685 5692 5697 5702 5706
5621 5620 5619 5616 5614 5612 5610 5606 5604 5602 5600 5599 5599 5599 5600 5601 5603 5605 5606 5609 5612 5615 5618 5622 5625 5629 5634 5636 5639 5643 5647 5651 5655 5653 5656 5660 5664 5669 5676 5681 5684 5689 5694
5617 5614 5609 5606 5604 5601 5599 5596 5592 5590 5587 5584 5583 5583 5584 5586 5589 5591 5593 5597 5601 5604 5607 5611 5614 5619 5624 5626 5630 5633 5636 5641 5641 5642 5645 5651 5654 5660 5669 5674 5676 5678 5684
5610 5605 5601 5599 5596 5593 5590 5588 5585 5582 5580 5577 5576 5574 5574 5576 5577 5579 5581 5584 5588 5592 5596 5599 5603 5608 5613 5618 5620 5622 5626 5629 5627 5631 5634 5638 5645 5651 5659 5666 5667 5670 5672
5606 5602 5598 5595 5592 5588 5585 5582 5579 5577 5575 5573 5573 5571 5571 5569 5570 5569 5570 5573 5576 5579 5583 5587 5590 5594 5596 5600 5605 5609 5613 5615 5614 5616 5623 5626 5632 5640 5648 5653 5657 5660 5664
5603 5599 5596 5593 5589 5585 5582 5579 5576 5574 5572 5570 5568 5566 5565 5564 5563 5564 5565 5568 5567 5570 5571 5572 5574 5577 5581 5582 5586 5593 5598 5601 5598 5605 5610 5614 5619 5627 5635 5642 5646 5650 5655
5602 5598 5593 5590 5586 5582 5581 5577 5574 5572 5569 5566 5564 5562 5560 5559 5559 5559 5559 5561 5563 5563 5564 5564 5566 5568 5566 5566 5570 5574 5578 5581 5585 5589 5594 5600 5608 5613 5621 5628 5634 5638 5643
5600 5597 5593 5590 5586 5582 5577 5575 5572 5569 5566 5563 5561 5558 5557 5554 5554 5553 5553 5555 5555 5554 5555 5556 5557 5559 5559 5557 5559 5561 5563 5565 5569 5574 5579 5584 5593 5600 5606 5612 5619 5624 5629
5600 5597 5593 5591 5587 5583 5578 5574 5570 5566 5563 5559 5558 5556 5553 5553 5552 5551 5550 5549 5549 5548 5549 5548 5549 5550 5551 5552 5553 5554 5553 5555 5558 5562 5566 5572 5578 5584 5591 5596 5603 5610 5616
5601 5597 5595 5593 5588 5585 5580 5577 5572 5569 5564 5560 5558 5555 5551 5551 5549 5549 5547 5544 5544 5543 5543 5543 5542 5542 5542 5544 5545 5547 5549 5551 5551 5551 5553 5558 5563 5569 5575 5582 5586 5591 5599
5603 5599 5597 5594 5590 5586 5581 5579 5576 5571 5566 5563 5560 5558 5553 5552 5549 5547 5546 5543 5542 5542 5541 5540 5539 5539 5539 5541 5540 5539 5540 5542 5544 5545 5546 5548 5552 5557 5561 5565 5570 5575 5579
5606 5603 5599 5595 5592 5588 5584 5580 5577 5568 5568 5567 5563 5559 5554 5552 5550 5547 5544 5542 5539 5538 5539 5538 5537 5535 5535 5536 5536 5536 5537 5538 5537 5536 5537 5538 5540 5544 5547 5551 5554 5557 5562
5609 5607 5602 5597 5593 5590 5585 5581 5579 5574 5569 5565 5565 5560 5553 5552 5549 5545 5543 5541 5537 5535 5534 5534 5533 5532 5533 5532 5532 5530 5530 5529 5529 5529 5529 5529 5529 5530 5532 5535 5539 5541 5544
5614 5609 5605 5600 5596 5591 5587 5582 5578 5577 5572 5564 5564 5558 5554 5553 5549 5544 5544 5539 5535 5533 5531 5530 5528 5527 5527 5527 5528 5527 5525 5523 5520 5518 5516 5516 5516 5516 5516 5517 5518 5523 5528
5618 5613 5608 5603 5598 5593 5588 5584 5579 5576 5571 5567 5563 5560 5557 5551 5547 5545 5541 5537 5534 5532 5529 5527 5524 5521 5519 5519 5519 5518 5515 5512 5508 5505 5502 5499 5497 5497 5497 5498 5500 5504 5509
5622 5616 5612 5608 5602 5596 5590 5585 5580 5576 5571 5566 5562 5558 5555 5550 5546 5543 5539 5536 5533 5529 5526 5523 5518 5515 5514 5511 5507 5504 5499 5493 5490 5486 5483 5477 5473 5472 5474 5475 5479 5483 5489
5626 5620 5614 5610 5604 5598 5592 5586 5582 5577 5572 5567 5561 5558 5554 5548 5545 5541 5536 5532 5528 5524 5522 5518 5516 5512 5508 5504 5500 5496 5487 5479 5473 5466 5460 5455 5450 5447 5445 5448 5454 5459 5466
5629 5623 5618 5611 5605 5598 5592 5586 5582 5577 5572 5567 5561 5557 5553 5549 5545 5538 5534 5530 5525 5521 5517 5513 5508 5507 5503 5497 5492 5485 5477 5467 5460 5452 5444 5435 5427 5424 5424 5424 5427 5434 5442
5628 5623 5618 5611 5604 5597 5590 5583 5579 5575 5571 5567 5562 5558 5553 5547 5541 5537 5532 5527 5523 5518 5513 5509 5504 5499 5496 5490 5480 5474 5462 5453 5446 5441 5429 5420 5412 5407 5406 5406 5407 5412 5419
5633 5626 5619 5613 5606 5599 5594 5588 5582 5576 5572 5567 5562 5557 5553 5546 5541 5535 5530 5524 5519 5514 5510 5506 5499 5491 5485 5482 5470 5456 5445 5437 5430 5431 5423 5413 5404 5400 5397 5396 5397 5399 5403
5631 5626 5621 5616 5610 5604 5598 5590 5583 5577 5571 5566 5561 5557 5553 5546 5541 5535 5528 5522 5517 5511 5505 5501 5495 5487 5477 5473 5465 5451 5433 5424 5423 5420 5418 5411 5402 5396 5393 5390 5390 5391 5394
5640 5631 5625 5619 5613 5607 5600 5593 5585 5579 5571 5567 5562 5558 5551 5546 5541 5535 5528 5521 5516 5510 5505 5501 5494 5486 5475 5466 5458 5448 5434 5423 5415 5413 5413 5406 5401 5395 5389 5386 5384 5385 5387
5645 5636 5629 5621 5615 5610 5603 5596 5588 5580 5574 5568 5561 5556 5551 5546 5540 5534 5528 5521 5515 5509 5505 5500 5492 5484 5473 5463 5452 5442 5429 5418 5409 5399 5404 5402 5394 5390 5385 5381 5379 5379 5380
5645 5637 5629 5623 5617 5611 5604 5597 5591 5584 5576 5567 5561 5555 5550 5545 5540 5534 5528 5522 5515 5509 5504 5499 5492 5483 5473 5462 5451 5440 5427 5415 5407 5398 5390 5392 5390 5389 5384 5378 5375 5373 5374